EW4715 Weather Reports


Display with metric or nautical units.
time (UTC)temp
F
wind
direction
speed
MPH
gust
MPH
rain 1hr
in
rain 24hr
in
rain mn
in
humidity
%
barometer
mb
20260504003004 56 304 0.0 0.0 0.00 0.43 0.01 72 1012.0
20260504001511 56 304 0.0 0.0 0.00 0.43 0.01 72 1011.9
20260504000003 56 304 0.0 0.0 0.00 0.43 0.01 72 1011.9
20260503234503 55 304 0.0 0.0 0.01 0.43 0.01 72 1012.0
20260503233002 55 304 0.0 0.0 0.01 0.43 0.01 72 1011.8
20260503231502 54 304 0.0 0.0 0.01 0.43 0.01 72 1011.9
20260503230006 53 304 0.0 0.0 0.01 0.43 0.01 72 1011.9
20260503224501 52 304 0.0 0.0 0.00 0.42 0.00 72 1012.0
20260503223100 52 304 0.0 0.0 0.00 0.42 0.00 72 1012.0
20260503221609 52 304 0.0 0.0 0.00 0.42 0.00 72 1012.0
20260503220059 51 304 0.0 0.0 0.00 0.42 0.00 72 1011.8
20260503214559 51 304 0.0 0.0 0.00 0.42 0.00 72 1011.8
20260503213201 51 304 0.0 0.0 0.00 0.42 0.00 72 1011.7
20260503211559 51 304 0.0 0.0 0.00 0.42 0.00 72 1011.9
20260503210057 52 304 0.0 0.0 0.00 0.42 0.00 72 1011.6
20260503204619 52 304 0.0 0.0 0.00 0.42 0.00 72 1011.6
20260503203100 52 304 0.0 0.0 0.00 0.42 0.00 72 1011.5
20260503201555 52 304 0.0 0.0 0.00 0.42 0.00 72 1011.3
20260503200055 51 304 0.0 0.0 0.00 0.42 0.00 72 1011.4
20260503194600 51 304 0.0 0.0 0.00 0.42 0.00 72 1011.4
20260503193106 51 304 0.0 0.0 0.00 0.42 0.00 72 1011.2
20260503191609 51 304 0.0 0.0 0.00 0.42 0.00 72 1011.2
20260503190055 51 304 0.0 0.0 0.00 0.42 0.00 72 1011.3
20260503184551 51 304 0.0 0.0 0.00 0.42 0.00 72 1011.4
20260503183050 51 304 0.0 0.0 0.00 0.42 0.00 72 1011.4
20260503181550 52 304 0.0 0.0 0.00 0.42 0.00 72 1011.4
20260503180056 52 304 0.0 0.0 0.00 0.42 0.00 72 1011.5
20260503174552 51 304 0.0 0.0 0.00 0.42 0.00 72 1011.6
20260503173045 51 304 0.0 0.0 0.00 0.42 0.00 72 1011.5
20260503171543 52 304 0.0 0.0 0.00 0.42 0.00 72 1011.5
20260503081505 60 229 0.0 0.0 0.04 0.32 0.32 72 1012.0
20260503071502 60 229 0.0 0.0 0.02 0.28 0.28 72 1011.8
20260503054611 60 66 0.0 0.0 0.07 0.26 0.26 72 1012.8
20260503053057 61 24 0.0 0.0 0.13 0.26 0.26 72 1013.0
20260503051556 61 24 0.0 0.0 0.19 0.26 0.26 72 1013.1
20260503050055 61 319 0.0 0.0 0.17 0.23 0.23 72 1013.1
20260503044554 61 319 0.0 0.0 0.13 0.19 0.19 72 1012.8
20260503043058 61 319 0.0 0.0 0.06 0.13 0.13 72 1012.9
20260503041553 61 72 0.0 0.0 0.01 0.07 0.07 72 1012.4
20260503040055 61 72 0.0 0.0 0.00 0.06 0.06 72 1012.2
20260503034550 61 355 0.0 0.0 0.00 0.06 0.06 72 1012.5
20260503033047 61 355 0.0 0.0 0.01 0.06 0.06 72 1012.9
20260503031545 61 355 0.0 0.0 0.01 0.06 0.06 72 1013.1
20260503030042 61 355 0.0 2.0 0.01 0.06 0.06 72 1013.4
20260503024539 62 5 0.0 0.0 0.02 0.06 0.06 72 1013.9
20260503023037 61 5 0.0 0.0 0.04 0.06 0.06 72 1014.1
20260503021532 61 5 0.0 1.0 0.05 0.06 0.06 72 1014.3
20260503020028 60 337 0.0 0.0 0.05 0.06 0.06 72 1014.8
20260503014526 60 337 0.0 2.0 0.05 0.05 0.05 72 1015.0
20260503013035 60 74 0.0 2.0 0.02 0.02 0.02 72 1015.3
20260503011521 60 74 0.0 2.0 0.01 0.01 0.01 72 1015.6
20260503010022 60 139 0.0 5.0 0.01 0.01 0.01 72 1015.7
20260503004516 60 44 0.0 2.0 0.00 0.00 0.00 72 1016.2